Regional Weather Roundup
Issued by NWS

Home | Current Version | Previous Version | Text Only | Print | Product List | Glossary Off
Versions: 1 2 3 4 5 6 7 8 9 10 11 12 13 14 15 16 17 18 19 20 21 22 23 24 25 26 27 28 29 30 31 32 33 34 35 36 37 38 39 40 41 42 43 44 45 46 47 48 49 50

000
ASUS43 KMPX 220501
RWRMN
WEATHER ROUNDUP FOR MINNESOTA
NATIONAL WEATHER SERVICE TWIN CITIES/CHANHASSEN MN
1200 AM CDT TUE MAY 22 2018


NOTE: "FAIR" INDICATES FEW OR NO CLOUDS BELOW 12,000 FEET WITH NO
SIGNIFICANT WEATHER AND/OR OBSTRUCTIONS TO VISIBILITY. N/A MEANS
CURRENT SKY AND/OR WEATHER CONDITIONS ARE NOT AVAILABLE.

MNZ060>063-068>070-220600-
   Twin Cities Metro

CITY           SKY/WX    TMP DP  RH WIND       PRES   REMARKS
TWIN CITIES    CLOUDY    59  55  87 S6        30.01R
ST PAUL        CLOUDY    58  54  86 S3        30.02R
CRYSTAL        CLOUDY    59  53  80 S7        29.99S
BLAINE         MOCLDY    61  54  77 S5        30.00F
LAKEVILLE      CLOUDY    55  54  94 CALM      30.01R
EDEN PRAIRIE   CLOUDY    59  53  80 SE6       30.00R
SOUTH ST PAUL  CLOUDY    58  54  85 CALM      30.01R
LAKE ELMO      CLOUDY    59  54  82 CALM      30.02S
$$
MNZ001>005-007-008-013>017-022>024-027-028-220600-
   Northwest Minnesota

CITY           SKY/WX    TMP DP  RH WIND       PRES   REMARKS
BEMIDJI        FAIR      52  45  77 SE5       29.99F
HALLOCK        FAIR      57  43  58 S8        29.93S
ROSEAU         FAIR      55  46  71 S7        29.96S
WARROAD        FAIR      57  45  62 CALM      29.97R
THIEF RVR FALL FAIR      55  43  63 S6        29.98R
CROOKSTON      FAIR      61  52  72 S12       29.97R
FOSSTON        FAIR      50  43  76 S5        29.99S
DETROIT LAKES  FAIR      54  45  71 SE5       30.00S
MOORHEAD       FAIR      57  52  82 S6        29.98S
PARK RAPIDS    MOCLDY    56  42  59 SE5       29.99F
MAHNOMEN       FAIR      55  47  77 S5        29.98F
$$
MNZ006-009>011-018-025>026-220600-
   North Central Minnesota

CITY           SKY/WX    TMP DP  RH WIND       PRES   REMARKS
BAUDETTE       FAIR      53  45  74 CALM      29.98R
FLAG ISLAND    FAIR      61  43  51 SW10      29.94S
INTL FALLS     FAIR      50  41  71 SW5       29.98R
WASKISH        FAIR      54  43  66 S5        29.98S
BIG FORK       FAIR      48  41  76 CALM      30.00S
LONGVILLE      CLOUDY    54  46  76 CALM      30.00F
GRAND RAPIDS   CLOUDY    55  44  66 CALM      30.02F
CRANE LAKE     FAIR      52  37  58 CALM      30.01R
ORR            FAIR      52  36  54 CALM      29.98S
COOK           FAIR      50  43  76 CALM      30.02S
WALKER         FAIR      50  42  74 CALM      30.00S
$$
MNZ012-019>021-037-220600-
   Northeast Minnesota

CITY           SKY/WX    TMP DP  RH WIND       PRES   REMARKS
DULUTH         CLOUDY    57  41  55 VRB3      30.01R
ELY            MOCLDY    48  36  61 CALM      30.01S
HIBBING        FAIR      47  40  76 CALM      30.00S
EVELETH        MOCLDY    54  42  65 CALM      30.02S
DULUTH HARBOR  CLOUDY    54  37  54 CALM      30.02S
TWO HARBORS    MOCLDY    54  43  66 CALM      29.99S
SILVER BAY     CLOUDY    48  37  66 CALM      29.99S
GRAND MARAIS     N/A     44  33  65 CALM      30.00S
G MARAIS ARPRT FAIR      41  34  75 CALM      30.02S
$$
MNZ029>031-032-039>041-046>048-054>057-064-220600-
   West Central Minnesota

CITY           SKY/WX    TMP DP  RH WIND       PRES   REMARKS
FERGUS FALLS   CLOUDY    59  52  77 SE5       29.96S
WHEATON        CLOUDY    57  54  88 SE9       30.00S
MORRIS         CLOUDY    59  57  94 SE3       29.99S FOG
ALEXANDRIA     CLOUDY    57  47  69 SE5       30.01S
ELBOW LAKE     CLOUDY    57  52  82 SE5       30.00S
WADENA         CLOUDY    55  45  67 S3        30.00S
GLENWOOD       MOCLDY    54  50  87 E5        30.00F
APPLETON       CLOUDY    59  55  88 E3        29.98F FOG
BENSON         CLOUDY    57  55  94 CALM      30.01S FOG
ORTONVILLE     PTCLDY    59  55  88 E6        29.98F FOG
MADISON        CLOUDY    63  63 100 SE5       29.98F
WILLMAR        CLOUDY    57  54  88 E5        30.02S
$$
MNZ033>034-036-042>043-049>051-058-059-220600-
   Central Minnesota

CITY           SKY/WX    TMP DP  RH WIND       PRES   REMARKS
ST CLOUD       CLOUDY    53  50  89 CALM      30.01R
SAUK CENTRE    CLOUDY    54  49  82 CALM      30.01R
PAYNESVILLE    CLOUDY    55  51  88 CALM      30.01F
AITKIN         CLOUDY    52  46  82 CALM      29.99S
PINE RIVER     CLOUDY    52  45  76 CALM      30.04S
BRAINERD       CLOUDY    57  43  59 CALM      30.00F
STAPLES        CLOUDY    54  45  71 CALM      30.00F
LONG PRAIRIE   CLOUDY    54  46  76 CALM      30.01S
LITTLE FALLS   CLOUDY    54  50  87 CALM      30.01S
LITCHFIELD     CLOUDY    57  54  88 CALM      30.01S
BUFFALO        CLOUDY    55  48  77 CALM      30.02R
MAPLE LAKE     CLOUDY    55  52  87 CALM      30.02S
HUTCHINSON     CLOUDY    58  54  85 NE5       30.02S
$$
MNZ037-044-045-052-053-220600-
   East Central Minnesota

CITY           SKY/WX    TMP DP  RH WIND       PRES   REMARKS
PRINCETON      CLOUDY    57  48  72 CALM      30.01R
MORA           MOCLDY    50  46  87 CALM      30.02S
CAMBRIDGE      CLOUDY    63  52  67 SE3       30.01R
RUSH CITY      CLOUDY    56  49  77 CALM      30.01S
MOOSE LAKE     CLOUDY    54  48  82 CALM      29.99S
HINCKLEY       CLOUDY    54  50  87 CALM      30.01S
CLOQUET        CLOUDY    54  46  76 CALM      30.01S
MCGREGOR       CLOUDY    52  50  93 CALM      30.01S
$$
MNZ071>073-080-081-089-090-097-098-220600-
   Southwest Minnesota

CITY           SKY/WX    TMP DP  RH WIND       PRES   REMARKS
MONTEVIDEO     CLOUDY    57  57 100 S3        30.00S FOG
GRANITE FALLS  CLOUDY    60  59  96 E5        30.01S FOG
CANBY          CLOUDY    61  59  92 SE3       30.00S
MARSHALL       CLEAR     57  56  96 S5        29.99F FOG
REDWOOD FALLS  CLOUDY    60  59  96 CALM      29.99S FOG
OLIVIA         CLOUDY    55  54  94 CALM      29.99F
PIPESTONE      CLEAR     55  55 100 SE3       30.00S FOG
WINDOM         HAZE      57  43  58 CALM      30.01R VSB 1/4
WORTHINGTON    PTCLDY    56  55  97 S7        30.02R FOG
JACKSON        CLOUDY    55  55 100 CALM      30.02R FOG
TRACY          CLEAR     57  57 100 S3        29.99F FOG
SLAYTON        FOG       54  54 100 CALM      30.01S VSB<1/4
$$
MNZ065>067-074>077-082>085-091>093-220600-
   South Central Minnesota

CITY           SKY/WX    TMP DP  RH WIND       PRES   REMARKS
MANKATO        CLOUDY    58  55  90 SE7       30.01R
NEW ULM        PTCLDY    61  59  94 CALM      30.00S FOG
ST JAMES       CLOUDY    61  61 100 CALM      30.01S FOG
FAIRMONT       CLOUDY    60  59  96 S3        30.01S FOG
GLENCOE        CLOUDY    60  54  81 E5        30.00S
FARIBAULT      CLOUDY    55  54  94 CALM      30.01R
OWATONNA       CLOUDY    55  54  94 SE3       30.01R
WASECA         CLOUDY    55  54  94 CALM      30.03R
ALBERT LEA     CLOUDY    55  54  94 SE3       30.01S FOG
$$
MNZ078>079-086>088-094>096-220600-
   Southeast Minnesota

CITY           SKY/WX    TMP DP  RH WIND       PRES   REMARKS
ROCHESTER      CLOUDY    54  54 100 NE3       30.02S FOG
RED WING       CLOUDY    57  54  88 E3        29.99F
STANTON        CLOUDY    57  53  87 E3        29.99S
DODGE CENTER   CLOUDY    54  52  94 SE3       30.01S FOG
WINONA         DRIZZLE   55  55 100 CALM      29.99S
AUSTIN         CLOUDY    55  54  94 CALM      30.00F FOG
PRESTON        CLOUDY    54  53  96 CALM      30.01S FOG
$$
ABBREVIATIONS USED IN REMARKS
   TC - TEMPERATURES IN CELSIUS
  WCI - WIND CHILL INDEX
   HX - HEAT INDEX
  VSB - VISIBILITY
$$




USA.gov is the U.S. government's official web portal to all federal, state and local government web resources and services.